Regional Weather Roundup
Issued by NWS

Home | Current Version | Previous Version | Text Only | Print | Product List | Glossary On
Versions: 1 2 3 4 5 6 7 8 9 10 11 12 13 14 15 16 17 18 19 20 21 22 23 24 25 26 27 28 29 30 31 32 33 34 35 36 37 38 39 40 41 42 43 44 45 46 47 48 49 50
000
ASHW40 PHFO 301812
RWRHI

WEATHER ROUNDUP FOR HAWAII
NATIONAL WEATHER SERVICE HONOLULU HI
800 AM HST SAT APR 30 2016

THIS IS AN AUTOMATED REPORT THAT HAS NOT BEEN QUALITY CONTROLLED.

NOTE..."FAIR" INDICATES FEW OR NO CLOUDS BELOW 12,000 FEET WITH NO
SIGNIFICANT WEATHER AND/OR OBSTRUCTIONS TO VISIBILITY.

* - THESE SITES REPORT LIMITED FIELDS

HIZ001>004-301900-
KAUAI-NIIHAU-

CITY           SKY/WX    TMP DP  RH WIND       PRES   REMARKS
LIHUE APT      CLOUDY    80  68  66 E15       30.12R
PORT ALLEN*      N/A     77 N/A N/A NE12        N/A
POIPU*           N/A     77 N/A N/A NE7G14      N/A
PRINCEVILLE*     N/A     73 N/A N/A SE3         N/A
KOKOLE POINT*  NOT AVBL
MOLOAA DAIRY*    N/A     75  70  83 E9G15       N/A
WAIMEA HTS*    NOT AVBL
PUU OPAE*      NOT AVBL
PUU LUA*       NOT AVBL
MAKAHA RIDGE*  NOT AVBL
$$

HIZ005>011-301900-
OAHU-

CITY           SKY/WX    TMP DP  RH WIND       PRES   REMARKS
HONOLULU       PTSUNNY   78  67  68 NE7       30.09R
KALAELOA       MOSUNNY   77  66  68 NE7       30.10R
KANEOHE MCB    CLOUDY    77  67  71 SE10G17   30.08R
WHEELER FIELD  FAIR      73  66  80 SE6       30.10R
BELLOWS*       NOT AVBL
KAHUKU*        NOT AVBL
WHEELER*       NOT AVBL
WAIANAE HARBOR NOT AVBL
DILLINGHAM*      N/A     73  64  73 MISG        N/A
KAHUKU TRN*      N/A     72  64  78 CALM        N/A
KAWAILOA*        N/A     72  64  78 SE3G14      N/A
KII*             N/A     77  70  78 E18G25      N/A
MAKUA RANGE*     N/A     77  64  65 NE1G7       N/A
OAHU FOREST NW NOT AVBL
SCHOFIELD BRK*   N/A     79  73  83 S1          N/A
SCHOFIELD S*   NOT AVBL
WAIANAE VLY*   NOT AVBL
KUAOKALA*      NOT AVBL
HONOULIUULI*   NOT AVBL
MOKUOLOE IS*   NOT AVBL
PALEHUA*       NOT AVBL
WAIAWA PHB*    NOT AVBL
$$

HIZ012>013-301900-
MOLOKAI-

CITY           SKY/WX    TMP DP  RH WIND       PRES   REMARKS
MOLOKAI AIRPT  CLOUDY    76  65  68 E9        30.10R
KALAUPAPA      NOT AVBL
MAKAPULAPAI*   NOT AVBL
MOLOKAI 1*     NOT AVBL
PUU ALII*      NOT AVBL
$$

HIZ016-301900-
KAHOOLAWE-

CITY           SKY/WX    TMP DP  RH WIND       PRES   REMARKS
KAHOOLAWE*     NOT AVBL
HAKIOAWA*      NOT AVBL
HONOKANAIA*      N/A     74  68  82 NE13G26   30.02R
KANELOA*         N/A     70  68  94 E17G33    30.14R
KEALIALALO*    NOT AVBL
LUA MAKIKA*    NOT AVBL
$$

HIZ014>015-301900-
LANAI-

CITY           SKY/WX    TMP DP  RH WIND       PRES   REMARKS
LANAI CITY     PTSUNNY   73  64  73 S5        30.14R
LANAI 1*       NOT AVBL
$$

HIZ017>028-301900-
MAUI-

CITY           SKY/WX    TMP DP  RH WIND       PRES   REMARKS
KAHULUI        MOSUNNY   79  63  57 E14G28    30.08R
KAPALUA-W MAUI PTSUNNY   75  64  69 E15       30.10
HANA AIRPORT   NOT AVBL
HANA*            N/A     77 N/A N/A SE7G16      N/A
HALEAKALA SUMM   N/A     50  19  29 NE9G35      N/A
MAALAEA BAY*   NOT AVBL
HALEAKALA*     NOT AVBL
KAUPO GAP*     NOT AVBL
KULA 1*          N/A     48  46  93 SE1G7       N/A
$$

HIZ023>026-301900-
BIG ISLAND OF HAWAII COAST AND LOWER SLOPES-

CITY           SKY/WX    TMP DP  RH WIND       PRES   REMARKS
KAILUA KONA    SUNNY     79  66  64 E3        30.05S
HILO           PTSUNNY   74  68  81 SW7       30.12R
HONOKAA*         N/A     70 N/A N/A VRB1        N/A
KAWAIHAE MWT*    N/A     81 N/A N/A E7G14       N/A
KAWAIHAE*      NOT AVBL
SOUTH POINT*     N/A     68 N/A N/A N16G23      N/A
UPOLU AIRPORT*   N/A    N/A N/A N/A E15G22      N/A
KAMUELA*       CLOUDY    64  61  88 NE14      30.18S
HAKALAU*         N/A     53  52  97 S3G9        N/A
KALOKO-HONOKO* NOT AVBL
PALI 2*          N/A     68  59  73 SW13G18     N/A
KEALAKOMO*       N/A     75  66  73 NE12G17     N/A
KAUPULEHU*     NOT AVBL
KAPAPALA*        N/A     69  61  75 NE6G12      N/A
LOWER KAHUKU*  NOT AVBL
PUHE CS*       NOT AVBL
PUHO CS*       NOT AVBL
PTA KEAMUKU*     N/A     66  59  77 CALM        N/A
WAIKOLOA*      NOT AVBL
$$

HIZ027>028-301900-
BIG ISLAND OF HAWAII INTERIOR AND SUMMMITS-

CITY           SKY/WX    TMP DP  RH WIND       PRES   REMARKS
BRADSHAW FIELD SUNNY     59  47  63 W5        30.36R
MK VISITOR CEN   N/A     57   9  14 NW5         N/A
MAUNA KEA*       N/A     37  -6  15 E12         N/A  WCI  30
MAUNA LOA*       N/A    N/A N/A N/A MISG        N/A
MAUNA LOA 1*   NOT AVBL
PTA KIPUKA*      N/A     61  48  63 SW7         N/A
PTA RANGE 17*    N/A     61  50  67 SE12G22     N/A
PTA WEST*        N/A     64  52  63 NW5G12      N/A
NENE CABIN*    NOT AVBL
AHUMOA*        NOT AVBL
PTA PORTABLE*  NOT AVBL
PUU MALI*        N/A     55  46  71 W6          N/A
$$

HIC003-301900-
NORTHWEST ISLANDS-

CITY           SKY/WX    TMP DP  RH WIND       PRES   REMARKS
MIDWAY ISLAND  CLOUDY    64  63  94 E17       30.22R
MIDWAY NOS*    NOT AVBL
FRENCH FRIGATE NOT AVBL
$$

PHZ110>124-180-301900-
BUOY REPORTS

STATION/POSITION TIME  TEMP    WIND        PRES    WAVE   SWELL
                       AIR SEA DIR/SP/G            HT/PER HT/DIR
                 (UTC) (F)     (DEG/KT/KT) (MB)    (FT/S) (FT/D)
BUOY 51001       1700   76 79   70/ 12/ 14 1019.0R
BUOY 51101       1750   75 75   80/ 10/ 12 1020.2R   6/ 9   5/ 90
BUOY 51100       NOT AVBL
BUOY 51002       1750   77 78   80/ 17/ 21 1016.8R   8/10   5/ 90
BUOY 51003       1750   77 78   40/ 10/ 12 1017.8R   6/11   7/310
BUOY 51004       1750   81 79   80/ 16/ 19 1017.6R   9/ 9   7/ 90
BARBERS PT BUOY  NOT AVBL
WAIMEA BAY BUOY  1704      78                N/A     5/12   3/330
KAILUA BAY BUOY  1711      78                N/A     7/ 9   2/ 10
LANAI BUOY       1715      78                N/A     3/13   2/220
BARBERS PT 2     1703      79                N/A     5/13   2/210
PAUWELA MAUI     1709      76                N/A     8/12   3/330
HILO             1712      76                N/A     8/ 9   2/ 90
KANEOHE BAY BUOY 1706      77                N/A     6/11   3/ 10
HANALEI KAUAI    NOT AVBL
KAHULUI HARBOR   1700   75 77   60/ 11/ 20 1018.2R
HONOLULU HARBOR  1700   76 78  100/  3/  9 1019.1R
KILO NALU        NOT AVBL
HILO HARBOR      1700   71 76  230/  7/  9 1019.2R
MOKUOLOE         1700   76 78  110/ 14/ 22 1018.7R
NAWILIWILI       1700   77 80   80/ 11/ 16 1018.6R
WHOTS BUOY       NOT AVBL
BUOY 51028       NOT AVBL
$$

......................KEY........................................
  SKY/WX - SKY CONDITIONS/PRESENT WEATHER
  TMP    - TEMPERATURE IN FAHRENHEIT
  DWPT   - DEWPOINT IN FAHRENHEIT
  RH     - RELATIVE HUMIDITY IN PERCENT
  WIND   - DIRECTION AND SPEED /MPH FOR ISLANDS...KTS FOR BUOYS/
  PRES   - MEAN SEA LEVEL PRESSURE IN INCHES OF HG
  VSB    - VISIBILITY IN MILES
  HX     - HEAT INDEX
  WCI    - WIND CHILL INDEX
  VRB    - VARIABLE WIND DIRECTION
  N/A    - NOT AVAILABLE




USA.gov is the U.S. government's official web portal to all federal, state and local government web resources and services.